�������l�o���
Date,Time,MP-1(��Sv/h),MP-2(��Sv/h),MP-3(��Sv/h),MP-4(��Sv/h),MP-5(��Sv/h),MP-6(��Sv/h),MP-7(��Sv/h),MP-8(��Sv/h),����,����(m/s),���J
2019/10/08,00:00,0.716,1.004,0.697,1.245,0.910,0.414,0.715,0.679,��,4.7,�L
2019/10/08,00:10,0.716,1.001,0.698,1.243,0.907,0.414,0.717,0.678,��쐼,5.2,�L
2019/10/08,00:20,0.718,1.002,0.697,1.243,0.906,0.414,0.715,0.679,��,5.4,�L
2019/10/08,00:30,0.714,0.999,0.696,1.242,0.906,0.414,0.714,0.678,��,4.6,�L
2019/10/08,00:40,0.716,1.002,0.697,1.242,0.904,0.414,0.714,0.677,��,4.3,�L
2019/10/08,00:50,0.714,1.001,0.697,1.241,0.903,0.414,0.715,0.679,��,6.4,�L
2019/10/08,01:00,0.715,1.001,0.694,1.241,0.904,0.414,0.714,0.677,��,6.2,�L
2019/10/08,01:10,0.715,0.998,0.696,1.241,0.903,0.414,0.714,0.677,��,5.5,�L
2019/10/08,01:20,0.717,0.996,0.695,1.239,0.903,0.412,0.713,0.677,��,5.4,�L
2019/10/08,01:30,0.714,0.995,0.694,1.237,0.900,0.412,0.713,0.678,��,7.3,�L
2019/10/08,01:40,0.714,0.994,0.694,1.237,0.901,0.413,0.715,0.676,��,8.1,�L
2019/10/08,01:50,0.712,0.994,0.694,1.234,0.898,0.413,0.714,0.675,��,7.6,�L
2019/10/08,02:00,0.711,0.992,0.692,1.235,0.898,0.413,0.712,0.675,��,6.8,�L
2019/10/08,02:10,0.711,0.989,0.693,1.232,0.895,0.412,0.712,0.675,��,7.5,�L
2019/10/08,02:20,0.709,0.988,0.694,1.228,0.894,0.412,0.710,0.675,��,7.1,�L
2019/10/08,02:30,0.708,0.987,0.691,1.225,0.894,0.413,0.711,0.675,��,6.8,�L
2019/10/08,02:40,0.709,0.990,0.693,1.227,0.892,0.412,0.712,0.674,��,7.1,�L
2019/10/08,02:50,0.709,0.985,0.689,1.228,0.893,0.413,0.711,0.674,��,5.9,�L
2019/10/08,03:00,0.709,0.986,0.689,1.227,0.892,0.411,0.713,0.674,��쓌,5.8,�L
2019/10/08,03:10,0.708,0.985,0.690,1.227,0.893,0.413,0.713,0.676,��,6.2,�L
2019/10/08,03:20,0.710,0.988,0.690,1.226,0.893,0.412,0.710,0.675,��,5.5,�L
2019/10/08,03:30,0.711,0.989,0.690,1.228,0.892,0.412,0.711,0.672,��,5.8,�L
2019/10/08,03:40,0.710,0.987,0.690,1.229,0.893,0.412,0.711,0.674,��,6.2,�L
2019/10/08,03:50,0.710,0.987,0.690,1.228,0.892,0.413,0.711,0.674,��,6.1,�L
2019/10/08,04:00,0.709,0.986,0.690,1.229,0.894,0.414,0.711,0.673,��,6.3,�L
2019/10/08,04:10,0.710,0.992,0.693,1.228,0.892,0.413,0.711,0.674,��,5.9,�L
2019/10/08,04:20,0.712,0.992,0.690,1.230,0.893,0.414,0.713,0.674,��,6.1,�L
2019/10/08,04:30,0.712,0.991,0.691,1.230,0.895,0.414,0.711,0.673,��,7.6,�L
2019/10/08,04:40,0.710,0.990,0.691,1.231,0.893,0.414,0.713,0.674,��,8.4,�L
2019/10/08,04:50,0.712,0.994,0.692,1.231,0.894,0.413,0.711,0.675,��,8.2,�L
2019/10/08,05:00,0.712,0.993,0.691,1.229,0.894,0.413,0.710,0.673,��,8.0,�L
2019/10/08,05:10,0.710,0.991,0.690,1.230,0.894,0.414,0.710,0.674,��쐼,7.3,�L
2019/10/08,05:20,0.711,0.989,0.689,1.228,0.891,0.411,0.712,0.674,��쐼,7.8,�L
2019/10/08,05:30,0.712,0.990,0.689,1.230,0.891,0.412,0.712,0.675,��,8.4,�L
2019/10/08,05:40,0.710,0.988,0.691,1.230,0.890,0.413,0.712,0.674,��,8.0,�L
2019/10/08,05:50,0.708,0.987,0.690,1.229,0.886,0.411,0.709,0.672,��쐼,8.2,�L
2019/10/08,06:00,0.708,0.982,0.687,1.225,0.888,0.413,0.711,0.672,��,8.7,�L
2019/10/08,06:10,0.707,0.983,0.685,1.225,0.885,0.412,0.711,0.673,��,7.9,��
2019/10/08,06:20,0.711,0.987,0.689,1.226,0.888,0.413,0.712,0.673,��,8.4,�L
2019/10/08,06:30,0.709,0.988,0.687,1.226,0.889,0.413,0.710,0.675,��,7.7,�L
2019/10/08,06:40,0.710,0.987,0.690,1.228,0.890,0.413,0.711,0.673,��쐼,6.9,�L
2019/10/08,06:50,0.710,0.989,0.692,1.229,0.891,0.415,0.712,0.674,��쐼,5.9,�L
2019/10/08,07:00,0.709,0.991,0.690,1.229,0.892,0.413,0.710,0.674,��쐼,5.6,�L
2019/10/08,07:10,0.712,0.988,0.690,1.226,0.891,0.413,0.710,0.675,��쐼,5.6,�L
2019/10/08,07:20,0.711,0.986,0.691,1.229,0.890,0.415,0.711,0.674,��,6.4,�L
2019/10/08,07:30,0.711,0.987,0.690,1.225,0.892,0.416,0.711,0.674,��,6.2,�L
2019/10/08,07:40,0.713,0.987,0.694,1.225,0.893,0.416,0.711,0.673,��쓌,7.1,�L
2019/10/08,07:50,0.714,0.987,0.692,1.225,0.892,0.415,0.712,0.675,��쓌,8.2,�L
2019/10/08,08:00,0.715,0.991,0.691,1.227,0.893,0.416,0.711,0.675,��쓌,8.5,�L
2019/10/08,08:10,0.713,0.988,0.695,1.226,0.891,0.415,0.712,0.676,��,8.9,�L
2019/10/08,08:20,0.715,0.991,0.692,1.227,0.894,0.414,0.711,0.675,��,9.4,�L
2019/10/08,08:30,0.714,0.991,0.691,1.228,0.892,0.416,0.713,0.674,��,7.9,�L
2019/10/08,08:40,0.715,0.986,0.692,1.228,0.892,0.415,0.713,0.674,��,9.2,�L
2019/10/08,08:50,0.712,0.990,0.690,1.230,0.892,0.415,0.712,0.675,��,9.0,��
2019/10/08,09:00,0.714,0.990,0.693,1.227,0.893,0.414,0.712,0.674,��,9.2,��
2019/10/08,09:10,0.712,0.990,0.692,1.229,0.894,0.412,0.713,0.675,��,7.7,��
2019/10/08,09:20,0.713,0.989,0.690,1.229,0.891,0.415,0.714,0.674,��,7.4,��
2019/10/08,09:30,0.712,0.985,0.688,1.228,0.893,0.414,0.713,0.676,��,7.2,��
2019/10/08,09:40,0.713,0.984,0.690,1.231,0.893,0.414,0.714,0.675,��,7.3,��
2019/10/08,09:50,0.711,0.986,0.689,1.230,0.893,0.415,0.714,0.674,��,7.6,��
2019/10/08,10:00,0.712,0.985,0.688,1.233,0.894,0.413,0.715,0.674,��,7.7,��
2019/10/08,10:10,0.711,0.987,0.688,1.231,0.892,0.415,0.714,0.676,��쓌,7.1,��
2019/10/08,10:20,0.713,0.986,0.688,1.229,0.894,0.414,0.714,0.675,��,7.1,��
2019/10/08,10:30,0.712,0.989,0.689,1.231,0.895,0.413,0.714,0.675,��,7.9,��
2019/10/08,10:40,0.712,0.990,0.688,1.232,0.896,0.416,0.714,0.676,��,9.1,��
2019/10/08,10:50,0.712,0.990,0.690,1.233,0.897,0.415,0.715,0.675,��,8.1,��
2019/10/08,11:00,0.713,0.994,0.689,1.234,0.897,0.415,0.714,0.676,��,6.6,��
2019/10/08,11:10,0.713,0.991,0.689,1.232,0.899,0.415,0.716,0.676,��,6.0,��
2019/10/08,11:20,0.715,0.992,0.689,1.236,0.898,0.415,0.716,0.677,��,6.7,��
2019/10/08,11:30,0.715,0.992,0.692,1.234,0.900,0.414,0.716,0.677,��,8.1,��
2019/10/08,11:40,0.714,0.995,0.691,1.233,0.899,0.417,0.716,0.678,��,8.1,��
2019/10/08,11:50,0.717,0.998,0.690,1.237,0.899,0.417,0.718,0.676,��,7.5,��
2019/10/08,12:00,0.716,0.994,0.692,1.233,0.901,0.417,0.718,0.678,��,7.3,��
2019/10/08,12:10,0.716,0.999,0.692,1.236,0.901,0.416,0.717,0.677,��,6.3,��
2019/10/08,12:20,0.716,1.000,0.693,1.234,0.900,0.416,0.718,0.678,��,6.2,��
2019/10/08,12:30,0.718,1.001,0.695,1.235,0.902,0.417,0.717,0.677,��,5.3,��
2019/10/08,12:40,0.717,1.002,0.693,1.237,0.902,0.418,0.717,0.678,��,3.5,��
2019/10/08,12:50,0.717,1.000,0.694,1.236,0.903,0.417,0.717,0.679,��쐼,3.2,��
2019/10/08,13:00,0.717,1.001,0.694,1.238,0.902,0.418,0.718,0.679,��쐼,2.6,��
2019/10/08,13:10,0.716,0.996,0.693,1.238,0.902,0.417,0.719,0.679,��쐼,2.2,��
2019/10/08,13:20,0.716,0.998,0.693,1.235,0.902,0.417,0.718,0.677,��쐼,4.0,��
2019/10/08,13:30,0.717,0.999,0.692,1.239,0.903,0.418,0.718,0.679,��쐼,3.6,��
2019/10/08,13:40,0.719,0.995,0.692,1.239,0.901,0.417,0.717,0.677,�쐼,2.0,��
2019/10/08,13:50,0.718,0.998,0.694,1.238,0.901,0.417,0.717,0.679,�쐼,2.3,��
2019/10/08,14:00,0.717,0.998,0.694,1.240,0.903,0.418,0.718,0.677,��쐼,2.8,��
2019/10/08,14:10,0.717,0.997,0.698,1.239,0.904,0.418,0.718,0.677,���쐼,2.0,��
2019/10/08,14:20,0.716,0.998,0.694,1.241,0.902,0.419,0.718,0.679,��쐼,1.2,��
2019/10/08,14:30,0.720,0.999,0.695,1.238,0.903,0.418,0.717,0.678,��쐼,3.2,��
2019/10/08,14:40,0.718,1.000,0.695,1.241,0.905,0.418,0.721,0.678,��쐼,1.7,��
2019/10/08,14:50,0.719,1.000,0.698,1.239,0.906,0.417,0.719,0.679,�쐼,1.1,��
2019/10/08,15:00,0.718,1.003,0.697,1.240,0.906,0.417,0.720,0.680,�쐼,3.4,�L
2019/10/08,15:10,0.719,1.003,0.697,1.240,0.906,0.416,0.718,0.680,��,4.3,�L
2019/10/08,15:20,0.720,1.001,0.699,1.242,0.904,0.417,0.719,0.680,��,3.3,��
2019/10/08,15:30,0.717,1.000,0.699,1.243,0.906,0.419,0.719,0.681,���k��,4.7,��
2019/10/08,15:40,0.721,1.002,0.697,1.244,0.905,0.417,0.719,0.680,��,3.7,��
2019/10/08,15:50,0.719,1.005,0.696,1.245,0.906,0.418,0.719,0.680,��쐼,2.2,��
2019/10/08,16:00,0.720,1.006,0.696,1.244,0.907,0.417,0.719,0.682,���쐼,2.6,��
2019/10/08,16:10,0.719,1.004,0.697,1.243,0.905,0.419,0.720,0.678,���쐼,2.3,��
2019/10/08,16:20,0.721,1.008,0.698,1.243,0.905,0.419,0.719,0.681,��,3.9,��
2019/10/08,16:30,0.719,1.006,0.697,1.243,0.907,0.419,0.719,0.682,�k��,3.5,��
2019/10/08,16:40,0.720,1.006,0.698,1.245,0.906,0.419,0.718,0.682,�k��,4.4,��
2019/10/08,16:50,0.719,1.005,0.699,1.244,0.907,0.418,0.718,0.680,�k�k��,5.7,��
2019/10/08,17:00,0.720,1.006,0.699,1.246,0.908,0.417,0.718,0.680,�k�k��,5.4,��
2019/10/08,17:10,0.719,1.006,0.696,1.245,0.908,0.418,0.719,0.681,�k��,6.1,��
2019/10/08,17:20,0.719,1.007,0.699,1.246,0.908,0.417,0.718,0.681,�k��,6.4,��
2019/10/08,17:30,0.719,1.008,0.700,1.246,0.905,0.417,0.720,0.680,���k��,7.3,��
2019/10/08,17:40,0.720,1.009,0.700,1.247,0.909,0.418,0.719,0.681,���k��,6.6,��
2019/10/08,17:50,0.720,1.010,0.701,1.246,0.908,0.415,0.721,0.682,�k��,6.8,��
2019/10/08,18:00,0.720,1.007,0.700,1.247,0.910,0.417,0.721,0.681,���k��,6.0,��
2019/10/08,18:10,0.720,1.008,0.699,1.247,0.909,0.415,0.719,0.681,���k��,5.4,��
2019/10/08,18:20,0.720,1.009,0.699,1.247,0.910,0.415,0.721,0.681,��,5.6,��
2019/10/08,18:30,0.721,1.009,0.701,1.247,0.912,0.416,0.720,0.682,���k��,2.6,��
2019/10/08,18:40,0.719,1.009,0.701,1.246,0.910,0.415,0.720,0.682,��쐼,1.5,��
2019/10/08,18:50,0.720,1.008,0.700,1.248,0.911,0.416,0.720,0.682,�k�k��,2.8,��
2019/10/08,19:00,0.717,1.010,0.701,1.249,0.910,0.414,0.721,0.681,���k��,2.9,��
2019/10/08,19:10,0.720,1.008,0.701,1.247,0.911,0.415,0.722,0.681,�k��,3.5,��
2019/10/08,19:20,0.722,1.010,0.700,1.249,0.909,0.414,0.720,0.681,�k�k��,3.2,��
2019/10/08,19:30,0.721,1.012,0.701,1.248,0.910,0.416,0.720,0.681,�k�k��,4.8,��
2019/10/08,19:40,0.722,1.011,0.703,1.250,0.910,0.415,0.720,0.684,�k��,4.9,��
2019/10/08,19:50,0.720,1.010,0.700,1.248,0.910,0.414,0.721,0.682,�k��,4.9,��
2019/10/08,20:00,0.721,1.010,0.702,1.249,0.913,0.414,0.721,0.683,�k��,5.3,��
2019/10/08,20:10,0.723,1.011,0.702,1.251,0.910,0.413,0.719,0.683,�k��,6.6,��
2019/10/08,20:20,0.722,1.010,0.703,1.252,0.910,0.414,0.719,0.683,�k��,6.7,��
2019/10/08,20:30,0.719,1.011,0.702,1.249,0.913,0.415,0.721,0.683,�k��,8.1,��
2019/10/08,20:40,0.721,1.008,0.701,1.249,0.911,0.413,0.722,0.684,�k��,7.3,��
2019/10/08,20:50,0.721,1.011,0.703,1.252,0.911,0.414,0.721,0.681,�k��,6.7,��
2019/10/08,21:00,0.719,1.008,0.703,1.253,0.913,0.412,0.721,0.683,�k��,5.4,��
2019/10/08,21:10,0.723,1.012,0.702,1.251,0.912,0.415,0.720,0.685,�k�k��,4.2,��
2019/10/08,21:20,0.722,1.010,0.705,1.251,0.910,0.413,0.721,0.683,�k��,6.0,��
2019/10/08,21:30,0.720,1.010,0.702,1.252,0.911,0.413,0.721,0.684,�k��,8.0,��
2019/10/08,21:40,0.721,1.010,0.701,1.252,0.911,0.413,0.722,0.683,�k��,6.9,��
2019/10/08,21:50,0.719,1.010,0.703,1.252,0.910,0.413,0.722,0.682,�k��,8.4,��
2019/10/08,22:00,0.720,1.011,0.703,1.252,0.913,0.412,0.723,0.682,�k��,7.6,��
2019/10/08,22:10,0.720,1.009,0.702,1.251,0.912,0.413,0.721,0.682,���k��,8.2,��
2019/10/08,22:20,0.721,1.013,0.703,1.254,0.911,0.411,0.721,0.684,���k��,11.0,��
2019/10/08,22:30,0.722,1.010,0.701,1.254,0.911,0.412,0.722,0.684,���k��,8.1,��
2019/10/08,22:40,0.720,1.011,0.701,1.254,0.911,0.414,0.721,0.682,���k��,10.2,��
2019/10/08,22:50,0.721,1.012,0.701,1.255,0.909,0.413,0.722,0.682,���k��,12.4,��
2019/10/08,23:00,0.722,1.010,0.700,1.253,0.911,0.413,0.721,0.683,�k��,10.2,��
2019/10/08,23:10,0.724,1.012,0.701,1.254,0.912,0.413,0.723,0.682,���k��,10.5,��
2019/10/08,23:20,0.721,1.012,0.700,1.257,0.912,0.413,0.722,0.683,���k��,11.0,��
2019/10/08,23:30,0.721,1.013,0.702,1.255,0.911,0.412,0.724,0.682,���k��,11.3,��
2019/10/08,23:40,0.719,1.013,0.703,1.257,0.913,0.415,0.722,0.682,�k��,8.2,��
2019/10/08,23:50,0.720,1.012,0.704,1.257,0.912,0.413,0.724,0.682,�k��,4.8,��
